Wind_Speed
21 20 19 19 18 18 17 17 17 16 16 16 16 16 15 13 12 11 10 10 9 8 8 8 8 7 7 7 7 7 7 6 6 5 5 5 5 5 5 6 7 7 8 9 10 11 12 11 11 12 13 13 13 12 12 11 12 12 12 12 12 14 16 16 16 15 16 17 17 18 19 19 19 19 19 19 19 19 19 20 21 21 21 22 22
21 21 21 21 19 18 17 17 17 17 17 16 16 17 17 15 14 13 12 11 10 9 9 8 8 7 7 7 7 7 7 7 7 7 6 6 6 5 6 6 6 7 7 8 9 10 10 10 11 11 12 11 12 12 12 12 12 13 14 13 13 14 15 16 17 16 16 17 18 19 19 20 21 21 21 21 21 22 22 22 22 22 22 22 22
21 22 22 22 21 20 19 18 18 18 18 17 17 17 17 16 16 15 13 12 12 11 10 9 9 8 8 7 7 7 7 7 8 8 8 8 8 7 7 7 7 7 7 8 8 9 9 9 10 11 11 11 11 12 12 12 12 13 14 14 13 14 15 16 17 17 16 16 17 18 19 20 21 21 21 22 22 23 23 23 23 23 23 23 23
22 24 24 24 23 23 22 21 20 19 18 17 18 18 17 17 17 16 15 14 14 13 12 11 11 10 9 8 8 7 8 8 8 8 8 9 9 9 9 9 9 9 9 9 9 9 9 9 9 10 11 10 10 11 12 12 12 13 14 14 14 14 15 15 15 16 16 16 16 17 18 19 19 20 21 21 21 22 22 21 21 21 22 23 23
26 27 27 27 28 28 27 24 22 20 18 17 18 19 19 19 18 17 17 16 16 15 14 13 13 12 11 10 10 9 9 9 10 10 10 10 11 11 11 10 11 11 11 11 11 10 10 9 10 11 11 11 10 11 12 12 12 12 12 13 13 14 15 15 15 15 16 15 15 16 18 18 18 18 19 20 20 20 19 19 19 20 21 23 23
28 27 26 27 29 27 25 24 23 21 19 18 18 18 19 20 20 20 19 18 18 17 16 16 15 14 13 12 12 12 11 11 11 11 12 12 12 12 12 11 11 11 12 12 12 12 11 11 11 12 12 12 12 12 13 13 13 13 12 12 13 13 14 14 15 15 15 15 15 15 16 17 17 16 17 19 20 18 18 17 18 19 21 23 23
28 28 27 28 27 24 22 24 23 22 21 20 20 19 19 20 21 21 21 20 20 19 18 17 16 15 15 15 14 13 13 13 12 13 13 13 13 13 12 12 11 11 11 12 13 13 13 13 13 13 13 13 13 13 14 14 14 14 14 14 14 14 14 14 15 16 16 16 15 15 15 16 17 17 16 18 19 19 19 19 18 18 20 22 23
27 28 29 28 26 24 25 24 22 22 22 21 20 19 20 20 20 20 20 20 20 19 19 18 18 17 16 16 15 15 15 14 14 14 14 14 14 13 13 13 13 12 12 12 13 13 14 14 14 14 14 14 14 15 15 16 16 16 16 16 16 16 16 16 16 17 17 17 17 16 16 16 16 16 16 17 18 18 20 22 21 20 20 22 22
26 25 27 27 24 24 23 21 19 21 23 22 20 20 20 19 19 19 19 20 19 19 19 19 19 18 17 17 16 16 17 16 14 14 14 14 14 14 14 14 15 15 15 14 14 15 15 15 14 14 15 15 15 16 16 17 17 17 17 17 18 18 18 18 18 19 19 20 19 18 18 17 16 16 16 16 17 18 19 22 22 22 22 22 23
24 23 24 25 22 19 18 17 19 21 22 22 22 21 20 19 18 18 19 19 19 19 19 19 19 19 19 19 18 18 17 16 15 15 14 15 15 16 16 16 16 16 17 17 17 17 16 16 16 16 16 16 17 17 17 18 19 19 19 19 19 19 19 19 20 20 21 21 20 20 19 18 17 17 17 17 18 19 20 22 24 23 24 24 24
21 22 22 22 19 17 16 17 19 20 21 22 22 21 20 20 20 19 18 18 19 19 19 19 19 18 19 19 19 19 19 17 16 16 16 16 16 17 17 17 17 18 18 18 19 19 19 19 18 18 18 18 18 18 19 19 20 21 21 21 21 21 21 21 21 21 22 22 21 21 21 20 19 19 19 19 19 21 21 23 25 25 26 26 25
17 20 20 19 19 17 17 17 18 19 20 20 20 21 21 22 22 21 20 20 21 21 21 20 20 20 19 19 18 18 18 18 18 18 18 18 18 19 19 18 18 19 19 19 19 20 21 21 21 21 20 20 20 20 20 21 21 22 22 23 23 23 23 23 23 23 23 23 23 22 21 21 20 20 19 20 20 22 22 23 25 26 27 27 27
15 16 17 17 18 18 17 17 17 18 19 19 20 21 22 23 23 23 22 22 22 23 22 21 21 21 21 20 19 18 17 17 18 19 20 20 19 20 21 20 20 20 20 21 21 20 21 21 22 22 21 21 21 22 22 22 23 23 23 23 24 24 24 24 24 24 25 25 25 23 22 22 21 19 18 20 21 22 23 23 25 26 27 28 27
15 16 16 16 17 17 17 17 17 17 18 19 21 22 23 24 24 24 24 24 24 25 24 23 22 22 22 21 21 20 18 17 17 18 19 20 20 21 21 22 22 21 21 21 21 21 20 21 21 22 22 22 22 22 23 23 24 24 24 24 24 24 25 25 25 25 25 26 27 26 24 24 23 21 20 21 22 23 23 24 25 26 27 27 27
16 16 17 17 17 17 16 17 17 17 18 19 20 22 23 24 23 24 24 25 25 26 26 26 26 25 24 23 23 22 21 20 20 19 19 19 20 21 22 23 22 22 22 22 22 21 21 20 21 22 22 22 22 22 23 24 25 25 26 26 25 25 25 25 25 25 25 26 27 27 26 25 26 25 24 25 25 25 25 26 27 27 27 27 25
15 16 17 18 18 18 18 17 17 18 19 19 20 21 22 23 24 24 24 25 25 26 27 28 29 28 27 26 26 25 25 24 24 23 22 21 21 22 22 23 23 22 22 22 23 23 22 22 23 23 23 23 22 22 23 24 26 27 27 28 27 27 26 26 25 26 26 27 27 28 27 27 28 28 28 29 29 28 28 28 28 27 27 27 26
11 12 13 15 16 17 17 18 19 20 21 21 22 22 23 23 24 24 24 24 25 26 26 27 29 30 29 29 29 28 28 27 27 27 26 25 24 24 23 23 23 23 23 24 24 25 25 25 25 25 25 25 23 23 23 25 27 28 29 29 29 29 28 27 27 27 27 28 28 28 28 28 29 30 30 31 31 31 32 31 29 28 29 29 27
8 9 9 10 11 12 13 14 16 19 21 23 24 25 25 25 25 24 24 24 25 26 27 27 28 29 29 29 29 29 29 29 30 30 28 27 27 27 26 25 25 24 24 24 25 26 26 26 26 27 28 27 26 25 24 25 27 28 29 29 30 30 29 28 28 28 28 28 29 29 29 29 29 30 31 31 32 33 34 34 32 32 32 30 29
9 9 8 8 8 9 9 10 11 14 17 19 22 24 26 27 27 25 24 23 24 26 27 27 28 29 30 29 29 29 29 30 31 31 29 28 29 29 29 29 28 27 26 26 26 27 27 27 26 26 27 27 27 27 27 27 27 27 28 29 31 31 29 28 28 28 28 29 30 30 30 30 30 31 31 31 31 33 34 35 35 35 34 32 30
11 11 11 10 10 9 9 9 9 10 11 14 16 19 22 24 26 26 25 25 25 26 26 27 28 29 30 29 29 29 30 31 32 31 31 30 29 29 30 31 30 30 29 29 28 28 28 29 28 28 28 28 28 28 29 29 29 29 29 30 31 29 28 28 28 29 29 30 31 31 31 30 30 30 30 30 30 31 32 33 34 35 35 33 31
15 15 14 14 13 13 12 12 11 11 11 12 13 15 17 19 22 25 26 27 28 28 28 28 28 29 29 28 27 27 29 30 30 31 31 30 29 28 29 30 31 32 33 33 31 29 28 29 29 28 28 28 28 28 29 30 31 32 31 30 29 28 28 30 30 29 30 31 31 31 31 30 30 29 29 29 28 28 29 30 31 31 32 33 31
19 19 18 18 18 18 17 17 16 15 15 15 15 15 15 16 18 21 24 26 28 29 30 30 31 30 30 28 26 26 27 28 28 28 29 30 30 30 30 30 31 33 35 35 33 31 29 28 28 27 26 26 26 26 27 28 30 31 31 30 29 29 30 31 30 30 30 31 32 32 31 30 29 29 28 28 27 27 27 28 28 28 28 29 28
24 23 23 22 22 22 22 22 21 21 21 20 20 19 18 17 17 18 20 22 24 26 28 30 32 33 32 30 27 27 29 29 28 27 27 28 30 31 32 32 33 34 35 35 35 34 33 31 30 28 27 26 25 25 25 25 27 28 28 28 29 29 30 30 30 30 30 30 32 32 32 31 30 30 29 29 28 28 27 27 27 26 26 25 24
28 28 27 26 26 26 26 26 26 26 26 25 24 23 23 22 21 20 20 20 21 22 24 26 29 31 32 32 30 30 30 30 29 28 27 27 29 30 31 33 34 36 36 36 35 35 35 34 33 32 31 30 29 27 27 27 27 28 28 29 30 31 31 31 31 31 32 32 33 33 32 31 31 31 31 30 30 29 28 27 26 26 25 24 22
30 30 30 30 29 29 29 29 29 30 30 29 28 27 26 26 26 25 24 22 21 21 22 24 26 29 31 32 33 33 32 31 29 28 29 29 30 31 31 32 33 35 36 36 36 35 35 35 35 34 33 33 32 32 31 31 31 31 31 32 33 33 34 34 34 35 35 36 36 36 34 32 31 30 30 30 30 30 30 29 27 26 25 23 22
32 32 32 32 32 32 32 31 32 33 33 33 32 31 30 29 29 29 28 27 25 24 23 24 25 27 29 31 32 33 34 34 34 33 33 33 34 34 34 33 34 34 35 36 36 35 36 36 35 34 33 33 33 33 33 33 34 34 34 34 34 34 35 36 37 38 38 38 38 37 36 33 31 30 30 30 30 30 31 30 28 26 24 23 22
31 32 32 32 32 33 33 33 33 34 35 35 35 34 34 32 32 31 31 31 29 28 27 26 26 27 28 29 30 31 33 36 38 38 38 38 38 37 36 36 36 35 35 36 36 37 37 37 36 35 34 33 33 33 34 34 34 35 34 34 34 34 35 36 37 38 38 38 37 36 35 32 31 31 31 31 31 31 30 30 29 26 25 24 24
29 30 30 31 31 32 32 32 32 33 34 36 37 37 37 36 35 35 34 34 33 32 31 29 28 29 29 29 29 29 30 32 36 39 40 40 40 40 38 37 37 37 37 37 38 38 38 38 38 37 36 36 35 35 35 34 34 34 33 33 33 34 35 35 35 35 36 36 36 35 33 32 31 31 32 32 32 30 28 27 26 25 25 25 25
27 27 28 29 30 31 31 31 31 31 32 33 35 36 37 38 38 37 37 37 36 35 34 32 32 31 31 31 31 30 28 29 32 36 38 39 40 40 39 39 39 39 39 40 40 39 39 39 39 39 38 38 37 36 35 34 33 33 33 32 33 33 34 34 33 33 32 33 34 33 32 32 32 32 32 32 31 28 26 25 25 25 25 26 26
25 25 26 26 28 29 30 30 30 31 31 31 32 33 35 37 38 38 38 38 38 38 37 36 35 35 34 34 34 33 31 29 30 32 34 36 37 38 39 39 40 41 42 43 43 42 41 40 40 40 40 40 39 38 36 34 34 34 33 32 33 33 34 34 33 32 32 32 33 33 32 32 33 32 32 31 30 28 27 25 25 25 27 29 29
25 25 25 25 26 27 28 28 29 29 29 30 30 31 33 35 36 37 38 38 38 39 39 39 39 38 37 37 36 37 36 34 33 33 33 34 35 35 36 38 39 41 43 44 44 44 43 43 42 42 41 41 41 40 38 36 35 35 34 33 33 33 34 34 33 33 32 32 31 31 31 32 32 31 31 30 30 30 28 25 24 24 25 28 30
26 26 26 26 26 26 26 26 27 27 27 27 28 30 31 32 34 35 36 37 38 39 40 40 41 41 40 39 39 39 40 39 38 37 36 35 35 35 35 35 37 39 41 42 43 43 43 44 44 43 43 43 42 41 39 37 36 36 36 35 34 33 34 34 35 35 34 32 29 29 30 31 30 28 28 29 30 29 27 24 23 22 23 25 27
26 26 26 26 26 26 26 26 26 25 25 25 26 27 29 30 30 32 33 35 37 39 39 40 41 42 42 42 42 42 43 43 43 42 41 40 39 38 36 35 36 37 38 40 41 42 42 43 43 44 44 44 43 42 40 38 37 36 37 36 35 34 34 35 36 38 37 35 32 31 30 31 30 29 28 29 28 28 26 24 23 22 23 25 27
25 25 26 26 26 25 25 25 24 23 23 23 24 25 26 27 28 29 30 32 35 37 38 39 40 41 42 43 43 44 45 46 46 46 46 45 43 43 41 39 37 37 37 38 39 40 41 42 42 42 43 43 43 43 42 40 38 37 37 37 36 35 35 36 37 39 39 39 38 35 33 31 30 29 28 27 27 27 25 23 21 21 24 26 26
25 25 26 26 25 25 25 24 24 23 23 23 24 25 25 26 27 28 29 31 32 34 36 37 39 41 42 43 44 45 46 47 48 49 50 49 49 47 46 44 42 41 39 39 39 39 40 40 40 40 41 42 42 42 42 41 39 38 38 38 37 37 37 37 38 40 41 42 42 40 37 34 32 32 31 29 28 27 25 23 21 22 25 26 25
26 26 26 26 26 26 26 26 25 25 25 25 25 25 26 26 27 27 28 29 31 32 33 35 37 39 41 43 44 45 46 47 48 49 51 52 53 52 51 49 48 46 44 43 42 41 40 39 39 39 39 40 41 41 42 41 40 39 39 39 38 38 39 39 39 39 41 43 43 42 41 38 36 35 34 33 30 27 26 25 24 25 27 27 26
26 27 27 27 28 28 28 28 28 27 27 27 27 27 28 28 29 29 30 30 31 32 33 34 35 37 39 41 43 45 46 47 48 50 51 53 54 55 54 54 52 51 50 48 46 44 43 41 40 39 39 39 39 39 40 40 40 40 40 40 40 39 40 40 39 39 40 42 42 43 42 40 38 37 35 34 31 28 27 27 27 27 28 27 27
28 27 27 27 28 28 29 28 28 29 29 29 29 30 30 30 30 31 31 32 33 33 34 34 35 36 38 39 41 43 45 46 48 49 51 53 55 56 57 57 56 55 55 53 52 50 47 45 43 42 41 41 40 39 39 39 39 40 41 41 41 40 40 40 40 40 40 41 42 41 40 39 40 40 38 37 36 34 34 33 31 29 29 28 28
30 29 28 28 28 29 29 29 29 30 30 30 31 31 31 31 30 31 32 33 34 34 35 35 36 37 38 40 41 43 44 46 47 48 50 51 53 55 57 58 58 58 58 58 57 55 52 50 48 46 44 43 42 42 40 39 38 38 40 41 41 41 41 41 41 41 42 42 41 40 38 37 37 38 39 39 38 36 37 37 35 32 31 30 31
31 30 29 29 30 30 30 30 31 31 31 31 30 30 29 29 30 30 31 31 32 33 34 36 37 38 39 40 42 43 44 45 46 48 49 51 52 54 55 57 58 59 59 59 60 60 58 55 53 51 48 46 45 44 43 42 40 39 39 40 41 41 42 42 42 42 43 43 43 41 40 38 36 37 39 39 38 37 38 39 38 36 34 33 33
31 30 30 29 30 31 31 31 31 32 31 31 29 28 28 28 29 29 30 30 31 32 33 34 36 37 39 40 42 43 45 45 46 47 48 50 52 54 55 56 56 57 58 59 60 62 62 60 58 56 53 51 48 46 45 44 43 42 41 41 40 40 41 41 42 42 43 44 45 45 45 44 42 42 42 41 40 40 41 42 42 40 38 36 35
31 30 29 29 29 31 32 32 32 32 31 31 30 29 29 29 29 30 30 31 32 32 33 34 35 36 38 40 42 43 44 45 46 47 47 49 51 53 55 56 56 56 56 57 59 61 62 63 62 61 58 56 53 50 48 47 46 45 44 43 42 41 41 41 41 42 42 43 44 45 47 47 48 48 46 45 44 44 44 45 45 44 43 41 39
30 29 29 29 30 31 31 32 32 32 31 31 31 30 30 30 31 32 32 33 34 35 35 35 36 37 38 39 41 43 44 44 45 46 47 48 49 51 53 56 57 57 56 55 57 59 61 62 63 63 62 59 57 55 52 50 49 48 47 45 44 43 43 42 42 42 42 43 44 45 46 47 48 48 48 47 47 47 47 47 47 47 46 44 43
28 28 28 29 30 30 30 31 31 32 32 32 32 31 32 32 33 33 34 35 36 37 38 38 39 39 39 39 40 42 43 44 45 46 46 47 49 50 51 54 57 58 57 56 55 56 58 60 62 63 63 62 60 58 56 54 52 50 49 47 46 45 45 44 44 44 44 43 44 44 45 46 47 47 47 47 47 48 49 49 49 49 49 48 48
28 28 29 29 29 30 30 30 31 31 32 32 32 32 32 32 33 34 35 37 38 39 40 41 41 42 42 42 42 42 43 44 45 46 46 47 48 50 51 53 55 57 58 57 55 54 55 56 58 61 62 62 61 60 59 57 55 53 51 50 49 48 47 46 46 46 45 45 44 44 45 46 46 47 46 46 47 48 49 50 50 50 50 50 51
28 28 29 29 29 30 30 30 31 31 31 32 32 33 32 32 33 33 35 36 38 40 41 42 42 43 43 44 44 44 44 44 45 46 46 46 47 50 52 53 54 55 57 57 56 54 54 54 55 57 59 60 60 59 59 59 58 56 54 52 51 50 48 48 47 47 46 46 46 45 45 45 46 46 46 46 47 47 48 48 49 49 50 50 51
29 29 29 29 29 30 30 30 31 31 31 32 32 32 32 32 33 33 35 36 38 39 40 41 41 42 43 44 45 45 46 46 46 46 46 46 47 49 51 53 54 55 56 56 55 54 53 53 53 53 54 56 57 58 58 58 59 59 57 55 54 52 50 49 48 47 47 47 47 46 46 46 46 46 46 47 47 47 48 48 48 48 49 50 51
28 28 29 29 29 29 29 29 30 30 31 31 32 32 33 33 34 35 36 37 37 38 39 39 40 41 42 43 44 45 46 46 47 47 48 47 47 48 49 51 53 54 55 55 55 54 52 51 51 51 51 51 52 54 55 56 57 58 58 58 56 54 52 50 49 47 46 46 46 46 46 46 46 46 46 47 47 48 48 48 48 48 49 49 50
27 27 27 27 27 28 28 28 28 29 30 30 31 32 33 35 36 37 38 38 38 39 39 39 39 40 41 42 43 44 45 46 47 48 49 49 48 47 48 49 51 53 54 55 54 53 52 50 49 48 48 49 49 50 52 54 55 56 57 58 58 57 55 52 50 48 47 46 45 45 45 45 45 45 45 46 46 46 47 47 48 49 49 50 49
25 25 25 25 25 26 26 27 27 28 29 29 30 31 33 35 37 38 39 39 40 40 40 40 40 40 40 41 43 44 44 45 46 47 48 49 48 48 47 47 48 50 52 53 53 52 51 50 48 47 46 47 47 48 49 51 52 52 53 55 56 57 56 54 52 50 48 47 45 44 43 43 44 44 44 44 44 44 44 45 46 47 49 50 50
22 22 22 22 23 23 24 25 26 27 28 29 30 32 33 34 36 37 38 39 40 40 40 40 40 40 40 41 42 43 44 44 45 46 47 48 48 48 47 47 47 48 49 51 52 52 51 49 48 46 45 45 46 46 47 48 49 50 50 51 52 54 55 55 53 51 50 48 47 45 43 43 43 42 42 42 43 43 43 44 44 45 46 47 48
Wind_Direction
208 209 207 204 201 197 196 197 199 200 202 203 204 206 208 208 209 211 214 217 216 210 207 209 215 221 218 217 218 219 221 223 224 225 224 224 229 234 236 233 231 232 234 237 238 239 239 239 238 237 240 245 249 252 251 250 252 257 259 258 259 260 258 258 258 256 259 267 273 275 275 275 278 280 279 279 282 286 291 297 300 302 304 306 309
214 214 212 209 207 204 200 198 199 200 201 201 203 206 209 209 211 212 211 215 216 213 213 214 217 221 223 225 226 228 232 233 234 235 234 235 236 238 239 238 238 239 241 242 243 242 241 240 240 240 242 244 246 250 250 249 251 255 259 261 259 262 265 265 265 263 262 265 269 274 277 278 279 280 281 283 288 290 293 296 298 300 302 304 306
222 223 221 216 213 210 208 204 203 202 201 200 199 203 208 210 213 214 212 214 216 215 216 220 225 227 227 230 234 235 239 240 240 240 241 240 238 239 240 240 242 245 246 249 249 247 244 242 241 241 241 240 241 246 249 248 249 252 258 262 262 262 265 268 270 270 268 266 269 274 277 277 279 280 281 283 286 287 290 294 297 300 301 302 305
226 225 223 221 217 215 212 210 208 206 204 201 198 197 202 208 213 215 216 216 217 218 219 222 229 233 236 239 241 241 243 244 244 241 242 243 241 241 241 241 243 246 247 250 252 250 245 241 241 242 241 240 242 246 251 252 252 252 255 260 263 264 264 265 266 267 267 264 264 267 271 275 278 280 280 280 281 284 289 294 298 300 300 301 304
231 225 221 220 218 215 212 209 210 210 208 206 203 199 198 202 207 212 216 218 220 222 225 226 229 234 238 244 247 246 245 244 245 242 241 244 245 244 245 244 245 247 248 250 252 252 248 242 242 242 241 241 244 250 254 257 258 257 256 258 260 261 263 265 266 265 265 264 261 262 268 272 274 276 278 280 281 285 291 297 300 301 301 301 303
236 232 230 229 226 220 212 208 210 211 210 209 209 207 204 201 202 205 209 214 218 222 226 228 231 234 237 242 245 247 247 243 240 239 238 241 245 248 250 250 249 249 250 252 253 252 252 249 248 248 247 246 248 251 255 258 260 261 261 262 262 260 259 262 266 267 266 265 262 261 264 269 272 274 277 281 284 287 291 292 295 298 301 301 302
237 237 238 236 234 229 218 210 210 212 212 212 211 212 212 209 207 205 205 208 212 217 222 226 230 233 236 240 242 244 246 242 238 236 236 238 241 246 251 253 252 251 251 254 255 255 252 251 251 254 255 255 256 257 257 257 258 258 259 262 264 265 264 264 265 267 268 268 266 264 263 266 271 274 276 281 286 290 291 289 289 293 296 297 300
235 235 237 236 233 228 219 211 209 213 216 217 215 215 216 216 215 214 212 212 212 213 216 220 225 229 231 235 238 241 242 241 239 239 240 242 242 244 248 252 254 253 252 251 253 255 255 253 252 254 257 260 262 263 263 262 260 258 259 260 262 265 268 269 270 271 272 272 271 270 269 268 273 277 280 283 286 288 290 290 291 291 291 294 301
232 231 232 232 230 224 219 215 215 219 221 221 222 221 219 220 220 220 221 220 219 218 217 216 216 219 222 226 231 236 239 240 240 241 243 246 249 251 252 254 255 257 257 254 251 250 250 251 251 252 255 258 260 263 265 266 265 263 262 263 263 264 266 269 271 273 273 273 273 274 274 275 277 280 280 281 283 284 285 288 289 290 291 295 300
229 229 227 227 228 224 222 222 224 225 223 222 222 223 223 225 226 226 225 222 222 223 225 224 220 216 216 219 223 228 234 239 242 245 245 246 249 253 255 257 258 258 258 258 257 254 251 249 249 249 250 252 255 259 262 265 267 267 267 267 267 267 267 268 270 273 274 274 276 278 278 278 281 281 279 279 283 285 286 286 288 290 292 294 297
224 228 224 223 225 224 222 222 223 224 223 222 223 224 226 229 231 232 230 226 224 225 228 233 235 232 227 224 223 224 226 229 234 240 245 247 248 249 251 254 257 258 257 257 257 257 257 255 253 251 251 251 253 255 257 260 263 264 266 268 268 269 270 270 271 272 274 275 276 277 278 280 282 284 285 285 287 288 288 288 290 292 294 294 296
222 228 225 224 224 222 219 217 219 224 227 228 228 228 229 232 234 236 236 234 233 232 233 235 239 242 242 240 236 233 230 227 226 229 235 241 245 247 248 248 249 253 256 256 255 255 255 256 256 255 254 255 256 257 257 258 259 259 261 262 264 266 268 270 272 273 275 277 277 277 279 281 282 283 287 288 288 287 288 290 292 293 294 295 298
215 221 222 225 225 221 218 216 219 224 229 232 233 233 234 236 238 239 239 239 238 237 238 238 238 240 242 244 246 246 243 239 234 231 230 233 238 244 246 247 247 249 252 254 255 255 254 255 256 257 257 258 258 259 259 260 259 258 258 258 260 262 265 268 271 273 276 278 279 280 282 283 283 283 286 287 286 286 288 290 291 291 293 295 300
218 218 218 223 226 223 217 214 218 223 228 231 233 235 237 240 242 243 243 243 243 243 244 242 240 240 241 244 248 250 249 247 244 243 239 236 237 240 244 246 246 246 247 250 252 253 253 253 253 254 255 256 258 259 261 263 263 262 261 259 259 260 262 265 268 271 274 277 280 282 284 285 285 286 287 285 285 286 287 287 288 289 292 295 299
234 232 232 234 235 234 227 219 218 220 224 228 231 235 239 242 245 247 246 246 247 248 250 248 245 245 245 246 248 251 251 249 248 249 249 247 246 245 247 249 249 248 247 247 249 250 251 250 249 249 250 251 254 258 260 263 264 264 264 263 262 261 261 264 267 270 273 275 278 281 283 285 286 287 287 287 286 287 286 285 286 288 292 294 296
242 242 244 246 247 247 246 240 233 227 226 229 231 234 238 241 244 245 246 247 249 250 252 251 248 248 248 248 248 250 252 252 253 254 255 256 256 254 252 253 255 256 254 253 253 252 253 252 251 251 250 249 251 254 257 260 262 262 263 263 264 264 263 265 268 270 272 274 277 280 282 284 284 285 286 286 287 288 286 285 288 291 293 294 297
239 241 244 247 250 252 253 251 247 241 238 237 236 236 237 239 241 243 244 247 250 252 254 253 251 249 249 250 251 251 253 255 258 261 263 263 262 260 258 256 255 257 257 256 255 255 255 256 258 259 258 256 254 253 254 257 259 260 262 263 264 265 265 267 268 269 271 274 275 277 278 279 280 282 283 284 286 287 288 290 292 293 293 295 298
229 236 241 244 248 252 253 251 249 246 243 242 241 240 240 240 241 243 247 249 251 252 253 253 252 251 250 251 251 251 253 256 259 263 265 267 265 263 263 262 261 262 261 259 258 257 256 257 259 262 264 265 264 261 259 259 259 260 263 264 265 265 265 267 268 269 270 271 273 274 274 275 277 278 280 282 284 286 290 293 295 293 293 295 297
225 230 236 239 244 249 249 248 248 247 245 244 243 244 244 242 241 242 244 247 249 251 251 250 250 250 250 251 251 251 252 254 257 260 263 266 266 264 262 263 265 268 270 269 266 263 261 260 260 261 265 267 268 268 267 266 264 263 264 265 263 262 265 269 270 269 269 269 269 270 271 272 274 275 277 279 281 284 288 292 293 293 293 295 295
231 233 236 237 240 242 243 245 247 248 249 249 248 248 248 246 245 244 242 242 244 246 246 246 246 246 247 248 249 250 252 253 254 257 259 262 264 263 260 261 264 268 271 272 271 268 264 263 262 263 265 266 267 268 270 271 270 268 268 266 264 265 271 274 274 273 272 270 270 271 271 272 273 274 275 277 279 282 285 288 289 291 292 293 292
236 239 242 243 245 246 246 247 245 245 247 248 250 251 251 251 251 250 247 245 244 243 243 242 243 243 244 244 245 247 251 252 253 253 255 257 259 258 257 258 260 263 265 266 267 267 265 264 265 266 267 267 266 267 268 270 272 273 274 274 273 275 278 278 277 276 275 275 274 274 274 274 275 276 277 278 279 280 282 283 285 286 288 289 290
238 240 242 244 247 249 251 251 250 248 246 246 248 250 251 251 252 252 251 249 247 245 244 242 242 241 240 240 240 243 247 250 250 250 250 252 253 254 255 256 258 260 262 262 262 264 264 265 265 266 266 264 263 265 266 268 270 273 277 279 280 280 280 279 280 279 279 278 278 278 278 279 279 279 279 279 279 279 279 279 281 283 285 286 287
240 240 242 244 247 249 251 252 253 253 252 251 251 251 251 251 250 251 252 252 250 249 247 244 244 243 242 239 238 241 246 250 250 249 248 250 253 254 255 256 257 259 261 261 261 262 263 263 264 264 264 263 263 265 267 269 271 273 276 277 278 277 277 279 280 281 281 280 279 280 281 283 282 281 280 279 278 278 278 280 282 284 284 283 283
242 242 243 244 245 248 250 252 253 254 254 254 255 255 254 254 253 252 253 254 256 256 254 251 250 249 248 245 241 241 245 249 251 251 251 252 254 257 258 257 257 258 259 260 261 261 261 262 262 263 262 262 263 264 266 267 268 269 271 273 274 274 275 276 277 279 280 279 278 279 280 280 280 281 280 279 278 278 279 281 282 282 282 282 281
247 246 245 245 245 245 248 251 253 255 255 255 255 254 254 254 254 255 254 253 254 256 258 258 257 256 254 251 246 243 244 246 249 251 252 253 253 255 256 256 255 256 257 258 260 260 260 259 259 259 259 259 259 260 261 263 264 265 267 270 272 274 274 275 276 277 279 279 279 278 278 278 277 277 276 276 277 278 279 280 280 280 280 280 278
250 250 250 248 247 246 245 246 249 253 256 257 257 256 254 253 254 255 255 254 253 253 255 256 258 260 259 257 253 249 248 249 251 251 251 252 252 252 252 252 254 255 255 256 257 259 260 260 260 259 258 257 257 258 260 261 262 263 265 267 269 271 272 274 275 277 279 279 278 276 276 275 274 273 272 272 273 275 278 280 281 280 281 280 275
252 253 252 252 251 250 248 246 246 248 252 255 257 257 256 256 255 255 255 255 254 254 254 254 255 258 259 260 259 256 253 253 254 255 255 255 255 255 254 253 254 255 255 255 256 258 260 262 263 264 263 263 263 263 262 262 262 263 264 265 265 266 268 271 274 277 279 279 277 274 272 268 267 268 269 269 270 272 276 281 283 284 286 285 278
252 253 253 254 253 253 252 250 249 248 249 251 253 255 257 257 257 256 256 255 254 254 254 254 256 257 258 259 259 258 257 256 256 257 258 258 258 259 258 256 256 256 256 257 259 260 262 263 264 265 266 268 269 270 268 267 266 266 266 267 267 266 267 269 273 277 279 278 276 273 269 266 264 266 267 268 269 271 273 278 282 284 287 285 277
254 252 252 253 253 254 254 253 252 251 249 249 251 253 255 256 257 257 257 257 257 256 254 255 256 257 258 259 259 257 256 257 258 259 259 259 260 261 260 259 258 258 259 259 259 260 261 262 263 265 267 268 270 272 272 272 271 270 269 269 269 268 268 269 271 274 277 277 275 273 270 267 265 265 266 268 269 269 269 273 278 281 283 282 276
257 255 252 251 252 252 253 253 253 252 252 251 251 251 252 254 256 257 257 258 259 259 258 256 255 255 255 258 260 260 258 256 257 260 261 261 261 261 261 260 259 258 259 259 260 260 260 260 262 264 266 268 269 270 271 273 274 273 270 269 268 268 267 267 268 270 272 273 273 272 270 268 266 265 266 267 266 265 266 270 275 279 281 282 279
259 257 254 252 251 251 251 252 253 253 253 253 253 251 251 252 255 257 258 258 258 259 259 258 257 256 255 255 257 261 262 260 259 260 261 262 262 261 260 260 259 259 259 259 260 261 261 261 261 262 265 266 268 269 271 273 274 273 272 269 267 267 267 267 267 267 268 269 271 272 271 269 267 266 265 263 262 263 265 268 272 275 279 283 282
259 258 255 253 251 250 250 250 250 250 250 250 250 251 251 251 253 255 257 259 259 259 260 260 260 260 259 257 255 257 261 263 263 262 262 263 263 263 261 260 259 259 259 259 260 261 262 262 261 262 264 265 267 269 272 273 273 273 272 270 267 265 266 266 266 266 265 265 268 272 271 269 267 264 262 261 262 263 264 266 268 272 277 280 280
260 259 257 255 252 250 249 249 248 248 247 246 246 248 251 252 252 253 254 257 259 261 261 262 263 263 262 261 259 257 258 260 262 264 264 264 264 265 264 263 261 261 260 260 260 260 261 261 261 262 263 265 266 268 270 271 271 270 270 269 267 264 263 263 264 265 265 265 267 267 265 265 266 264 262 262 262 263 263 263 265 267 271 274 277
262 260 258 256 253 251 249 248 248 248 247 246 245 246 248 250 251 252 252 252 255 258 260 262 263 264 264 263 263 261 259 258 260 263 265 266 265 265 265 266 266 265 264 263 262 261 260 261 261 262 263 264 266 267 268 269 268 267 266 267 267 265 262 261 262 264 265 267 268 266 262 260 261 261 262 263 265 266 264 260 258 260 265 270 274
265 262 259 257 255 253 252 250 249 248 248 249 249 250 250 251 251 252 253 253 253 254 256 258 260 262 263 264 264 264 263 262 261 262 264 266 267 266 266 267 268 268 268 267 266 265 263 263 263 263 263 264 264 265 266 266 266 265 265 266 267 266 263 261 261 264 267 268 269 269 266 261 258 258 260 264 267 268 264 255 252 257 264 269 274
266 263 260 258 256 255 254 253 253 252 252 253 253 254 254 254 253 253 254 255 256 256 256 256 257 259 260 262 263 264 264 264 264 264 264 265 267 268 268 268 268 269 269 268 268 267 266 266 265 265 264 264 264 264 263 264 263 263 263 264 266 266 264 262 261 263 266 268 269 269 268 266 262 260 261 264 266 265 262 258 255 257 264 271 275
264 262 260 259 258 258 257 256 256 256 257 256 256 255 255 255 255 255 255 255 256 256 257 258 258 258 259 260 261 262 262 263 263 264 265 265 266 266 267 267 267 267 268 267 267 267 266 266 266 266 265 265 265 264 263 262 262 262 261 262 263 263 264 264 263 262 264 267 268 268 268 268 269 270 269 267 263 260 263 266 262 260 265 271 276
267 263 260 258 258 258 258 257 257 257 257 256 256 256 256 256 257 257 257 258 258 259 259 260 260 261 261 261 261 261 261 261 261 262 263 264 265 265 266 266 266 266 266 266 267 267 267 266 265 265 265 266 266 265 264 262 261 261 261 261 261 262 263 263 263 263 265 266 267 267 267 267 269 272 272 270 266 263 264 267 267 266 270 274 279
269 268 265 262 260 259 258 258 257 256 256 255 255 256 256 257 257 257 258 259 261 261 262 262 262 262 263 263 263 263 262 262 261 260 260 261 263 264 265 265 265 265 265 265 266 267 267 267 266 265 265 265 266 267 266 265 263 262 262 261 261 261 261 262 262 263 264 264 265 268 269 267 266 267 268 270 271 268 264 264 266 270 273 277 281
268 268 267 266 264 263 261 260 260 259 258 257 257 257 257 258 258 259 260 261 262 263 263 264 264 264 265 265 265 265 264 264 263 262 261 260 260 261 263 263 264 264 264 264 264 265 266 266 266 266 266 266 266 266 267 267 265 264 263 263 262 261 261 262 262 262 263 263 264 266 269 268 266 265 265 269 271 269 265 265 268 271 274 277 279
264 264 265 266 267 266 266 265 263 262 262 261 261 261 262 262 263 264 264 265 266 266 266 266 266 267 267 268 268 267 267 266 266 265 263 262 261 261 261 262 263 263 263 262 262 263 263 264 265 265 266 266 265 265 265 266 266 266 265 264 264 262 262 262 262 262 263 263 264 265 267 268 268 267 267 268 269 268 267 268 270 273 275 276 278
260 261 262 264 265 266 267 267 266 265 265 265 266 267 268 269 270 270 271 271 271 270 270 270 270 270 270 270 270 270 269 269 269 268 267 265 263 262 261 262 262 263 262 261 261 261 261 261 262 263 264 265 265 265 264 264 264 266 266 265 265 265 264 264 264 264 264 264 264 265 266 268 269 270 270 269 269 269 269 269 270 271 273 275 276
260 260 261 261 262 263 264 266 267 268 268 269 270 271 273 274 275 276 276 275 275 274 273 272 272 271 270 270 271 272 272 271 271 270 270 269 267 265 263 262 263 263 263 262 261 260 259 259 260 260 261 263 264 265 264 263 263 263 264 265 265 265 266 265 265 266 266 265 266 266 267 268 269 270 271 271 271 272 273 273 272 272 273 273 273
261 261 261 261 262 262 263 265 265 267 268 269 271 273 274 276 278 279 279 279 278 277 276 275 274 273 272 271 270 270 271 271 271 271 271 270 269 268 266 264 263 264 264 264 263 262 261 259 259 259 259 260 261 262 264 264 263 263 263 263 264 264 265 266 266 267 267 267 267 268 268 269 270 270 271 271 272 273 273 273 274 274 274 273 271
264 264 263 263 264 265 266 266 267 268 269 270 271 273 274 276 278 279 280 280 279 278 277 276 275 274 273 272 271 270 270 270 271 271 271 270 270 269 268 266 265 264 264 265 265 264 263 261 260 259 258 259 259 260 261 263 264 263 262 262 262 262 263 264 265 266 267 268 268 268 269 270 271 271 271 271 271 271 271 272 272 272 273 273 271
267 267 267 267 268 269 269 270 270 271 272 273 274 275 276 277 277 278 279 279 279 278 276 275 274 274 273 273 272 271 271 270 270 270 269 269 268 268 268 268 267 265 265 265 265 265 264 263 262 260 259 258 259 259 259 260 262 263 263 262 261 262 262 262 263 264 266 268 268 268 269 270 271 271 272 271 271 271 272 272 272 271 272 272 271
268 269 269 270 270 271 271 273 274 275 277 278 279 280 280 280 279 278 278 278 278 278 277 276 275 274 273 273 272 272 271 271 270 270 270 268 267 265 266 267 267 266 265 265 265 265 264 264 263 263 262 260 259 259 259 259 259 261 262 262 262 261 261 262 263 264 265 266 268 268 269 269 270 270 271 271 270 271 272 273 273 273 272 271 270
269 269 270 270 270 272 273 275 277 279 281 282 284 284 284 282 280 279 278 278 279 279 279 279 278 276 275 274 273 272 271 270 270 270 270 269 268 266 265 264 265 265 265 265 265 265 264 264 264 264 264 263 261 260 259 259 258 259 260 261 262 262 261 261 262 263 264 266 267 269 269 270 270 270 270 270 270 270 270 271 272 273 273 273 271
266 268 269 270 272 274 275 277 279 281 283 285 286 286 284 282 281 280 280 280 280 281 281 280 280 279 277 276 274 273 271 270 269 268 268 269 268 267 266 264 263 263 264 264 264 265 264 264 264 264 264 264 263 261 260 259 259 258 258 259 261 262 262 261 260 261 263 264 266 268 270 271 272 272 272 272 272 271 270 269 270 271 272 273 272
265 267 269 270 272 274 275 278 280 282 284 285 286 285 283 282 281 280 280 279 279 279 280 280 280 280 279 278 277 275 272 271 269 268 268 268 267 267 266 265 264 263 263 263 263 264 264 264 264 264 264 264 264 263 261 260 260 259 258 258 259 260 261 261 260 260 260 261 263 265 267 269 271 272 273 273 274 274 273 272 272 272 272 272 272
265 266 268 270 272 274 277 280 282 284 285 286 286 285 285 284 283 282 281 279 278 278 278 279 279 279 279 278 278 277 275 273 271 269 268 267 267 266 266 266 265 264 263 262 262 263 263 264 264 264 264 264 264 264 263 262 261 260 259 258 258 258 260 261 260 260 259 260 261 262 264 266 268 269 270 271 273 273 274 273 273 273 272 271 270
Height
3227 3228 3229 3230 3231 3232 3233 3234 3235 3236 3237 3239 3241 3242 3244 3245 3246 3247 3248 3249 3250 3251 3252 3253 3253 3254 3254 3255 3256 3256 3257 3257 3258 3258 3259 3259 3259 3260 3260 3261 3261 3262 3262 3263 3263 3263 3264 3264 3265 3266 3266 3266 3266 3266 3267 3267 3267 3268 3268 3268 3269 3268 3268 3268 3268 3269 3269 3268 3268 3267 3267 3266 3266 3266 3266 3265 3265 3265 3264 3264 3263 3263 3262 3261 3260
3227 3228 3229 3229 3230 3231 3232 3233 3234 3235 3236 3237 3239 3240 3242 3243 3245 3246 3247 3247 3248 3249 3250 3251 3252 3253 3254 3254 3255 3255 3256 3256 3257 3258 3258 3258 3259 3259 3259 3260 3260 3261 3261 3262 3262 3262 3263 3263 3264 3264 3265 3265 3265 3266 3266 3266 3266 3267 3267 3267 3268 3267 3267 3267 3267 3267 3267 3267 3266 3266 3266 3265 3265 3265 3264 3264 3264 3263 3263 3262 3262 3261 3260 3259 3258
3226 3227 3229 3229 3229 3230 3231 3232 3233 3234 3235 3236 3237 3238 3240 3241 3242 3244 3245 3246 3247 3248 3249 3250 3250 3251 3252 3253 3254 3254 3255 3255 3256 3256 3257 3257 3258 3258 3258 3259 3259 3260 3260 3261 3261 3261 3262 3262 3263 3263 3263 3264 3264 3264 3265 3265 3265 3265 3266 3266 3266 3266 3266 3266 3266 3266 3266 3266 3265 3265 3265 3264 3263 3263 3263 3263 3262 3262 3261 3261 3260 3259 3258 3257 3257
3224 3225 3227 3228 3228 3228 3229 3230 3231 3232 3233 3235 3235 3236 3237 3239 3240 3242 3243 3244 3245 3246 3247 3248 3249 3250 3251 3252 3253 3253 3254 3254 3254 3255 3256 3256 3256 3257 3257 3258 3258 3258 3259 3259 3260 3260 3260 3261 3261 3262 3262 3262 3263 3263 3263 3264 3264 3264 3264 3264 3264 3265 3264 3264 3264 3264 3264 3265 3264 3264 3263 3263 3262 3262 3262 3261 3261 3260 3260 3259 3259 3258 3257 3255 3255
3222 3222 3223 3224 3224 3225 3226 3228 3229 3230 3232 3233 3234 3235 3235 3236 3237 3239 3240 3242 3243 3244 3245 3246 3247 3248 3250 3251 3251 3252 3252 3253 3253 3253 3254 3254 3255 3255 3256 3256 3257 3257 3258 3258 3258 3259 3259 3260 3260 3260 3261 3261 3262 3262 3262 3262 3262 3262 3263 3263 3263 3263 3263 3263 3263 3263 3263 3263 3263 3262 3262 3262 3261 3261 3260 3260 3259 3259 3258 3258 3257 3255 3254 3254 3253
3220 3222 3223 3222 3221 3223 3226 3228 3228 3229 3230 3231 3232 3234 3234 3234 3235 3236 3238 3239 3241 3242 3243 3244 3245 3247 3248 3249 3249 3250 3251 3251 3252 3252 3252 3253 3253 3253 3254 3254 3255 3255 3256 3256 3257 3257 3258 3258 3258 3259 3259 3260 3260 3260 3261 3261 3261 3261 3261 3261 3261 3261 3261 3261 3261 3261 3261 3261 3261 3261 3260 3260 3259 3259 3259 3258 3257 3257 3257 3256 3255 3254 3252 3251 3250
3218 3221 3222 3221 3223 3226 3228 3227 3226 3227 3228 3228 3229 3231 3232 3233 3234 3234 3235 3237 3238 3239 3241 3242 3243 3244 3245 3246 3247 3248 3248 3249 3250 3250 3250 3251 3251 3252 3252 3253 3253 3254 3254 3255 3255 3256 3256 3256 3257 3257 3258 3258 3259 3259 3259 3259 3259 3259 3259 3260 3259 3259 3259 3259 3259 3259 3259 3259 3259 3259 3259 3258 3257 3257 3257 3256 3255 3255 3254 3253 3253 3253 3251 3249 3248
3216 3219 3221 3221 3224 3227 3225 3221 3221 3224 3225 3226 3227 3228 3229 3231 3233 3234 3235 3235 3236 3237 3238 3239 3240 3241 3242 3243 3244 3245 3246 3246 3247 3248 3249 3249 3250 3250 3251 3251 3252 3252 3253 3253 3254 3254 3254 3255 3255 3256 3256 3256 3257 3257 3257 3257 3257 3258 3258 3258 3258 3258 3258 3258 3257 3257 3257 3256 3256 3256 3256 3256 3256 3255 3255 3254 3254 3253 3251 3250 3250 3250 3249 3247 3246
3213 3217 3219 3220 3222 3224 3221 3217 3218 3221 3223 3224 3225 3226 3227 3229 3231 3233 3234 3235 3235 3236 3236 3237 3238 3238 3239 3240 3241 3242 3243 3244 3245 3246 3247 3247 3248 3249 3249 3250 3250 3251 3251 3251 3252 3252 3253 3253 3253 3254 3254 3254 3254 3255 3255 3255 3255 3255 3256 3256 3256 3256 3256 3256 3255 3255 3255 3254 3254 3254 3254 3254 3254 3253 3253 3253 3252 3251 3250 3248 3247 3247 3246 3245 3244
3210 3213 3216 3217 3219 3220 3218 3216 3217 3219 3221 3222 3223 3224 3226 3227 3229 3231 3232 3233 3234 3234 3235 3235 3236 3236 3237 3238 3239 3240 3241 3242 3243 3244 3245 3245 3246 3247 3247 3248 3248 3249 3249 3250 3250 3250 3251 3251 3251 3252 3252 3252 3252 3252 3253 3253 3253 3253 3253 3254 3253 3253 3253 3253 3253 3253 3252 3252 3252 3252 3251 3251 3252 3251 3251 3250 3249 3248 3247 3246 3244 3244 3243 3242 3242
3208 3210 3212 3213 3214 3214 3213 3214 3216 3218 3219 3220 3220 3222 3223 3225 3227 3228 3229 3230 3231 3232 3233 3233 3234 3235 3235 3236 3237 3237 3238 3239 3240 3241 3242 3243 3243 3244 3245 3245 3246 3246 3247 3248 3248 3249 3249 3249 3249 3249 3249 3250 3250 3250 3250 3251 3251 3251 3251 3251 3251 3251 3251 3251 3251 3251 3250 3250 3250 3250 3249 3249 3250 3249 3248 3248 3247 3246 3245 3243 3242 3241 3240 3239 3239
3207 3208 3209 3210 3211 3211 3210 3211 3213 3215 3217 3218 3219 3220 3221 3222 3224 3226 3226 3227 3228 3229 3230 3231 3231 3232 3233 3234 3235 3235 3236 3237 3238 3238 3239 3240 3240 3241 3241 3242 3243 3243 3244 3245 3246 3247 3247 3247 3247 3247 3247 3247 3248 3248 3248 3248 3248 3248 3249 3249 3249 3249 3249 3248 3248 3248 3248 3248 3247 3247 3247 3247 3247 3247 3246 3245 3244 3243 3242 3241 3240 3239 3237 3236 3235
3206 3207 3207 3208 3208 3208 3208 3208 3210 3213 3214 3216 3217 3218 3219 3220 3221 3223 3224 3225 3226 3227 3228 3228 3229 3229 3230 3231 3232 3233 3234 3235 3236 3236 3236 3237 3237 3238 3238 3239 3239 3240 3241 3241 3242 3243 3244 3245 3245 3245 3245 3246 3246 3246 3246 3246 3246 3246 3246 3246 3246 3246 3246 3246 3246 3246 3246 3245 3245 3245 3245 3245 3244 3244 3244 3243 3241 3240 3239 3239 3237 3236 3234 3233 3233
3204 3205 3205 3206 3206 3206 3205 3206 3208 3210 3211 3213 3214 3215 3216 3217 3218 3220 3221 3222 3223 3224 3225 3226 3226 3227 3227 3228 3229 3230 3231 3233 3234 3234 3235 3235 3235 3235 3236 3236 3236 3237 3237 3238 3239 3239 3240 3241 3242 3242 3243 3243 3243 3243 3243 3243 3243 3243 3242 3242 3243 3243 3243 3243 3243 3243 3243 3243 3242 3242 3243 3242 3241 3241 3241 3240 3238 3237 3236 3235 3234 3233 3232 3231 3230
3201 3202 3203 3204 3204 3204 3204 3204 3205 3207 3209 3210 3212 3213 3214 3215 3216 3217 3218 3219 3220 3221 3222 3223 3224 3224 3225 3225 3226 3227 3228 3230 3231 3232 3233 3234 3234 3234 3234 3234 3234 3235 3235 3235 3236 3236 3237 3237 3238 3239 3239 3240 3240 3240 3240 3240 3240 3239 3239 3239 3239 3239 3239 3240 3240 3240 3240 3239 3239 3239 3239 3239 3238 3238 3238 3237 3235 3234 3233 3231 3230 3230 3229 3228 3227
3198 3199 3200 3201 3201 3202 3202 3203 3203 3205 3207 3208 3209 3210 3211 3212 3213 3214 3215 3216 3217 3218 3219 3220 3220 3221 3222 3222 3223 3224 3225 3226 3227 3228 3230 3231 3232 3232 3233 3233 3233 3233 3233 3234 3234 3234 3235 3234 3235 3235 3235 3236 3237 3237 3237 3237 3236 3236 3235 3236 3236 3236 3236 3236 3237 3236 3236 3235 3235 3235 3235 3235 3235 3234 3234 3233 3232 3231 3229 3228 3227 3226 3225 3224 3224
3197 3198 3198 3199 3199 3199 3200 3201 3202 3203 3204 3206 3206 3207 3208 3209 3210 3211 3212 3213 3213 3214 3215 3216 3217 3217 3218 3219 3220 3221 3222 3223 3223 3224 3226 3227 3228 3229 3229 3230 3230 3231 3231 3232 3232 3233 3233 3233 3233 3232 3232 3233 3234 3234 3234 3233 3233 3232 3232 3232 3233 3232 3233 3234 3234 3233 3233 3232 3232 3231 3231 3231 3231 3231 3230 3230 3229 3227 3225 3224 3224 3223 3221 3220 3220
3196 3196 3197 3197 3198 3198 3198 3199 3200 3201 3202 3203 3204 3204 3205 3205 3206 3207 3208 3209 3209 3210 3211 3212 3213 3214 3215 3216 3216 3217 3218 3219 3220 3221 3222 3223 3223 3224 3225 3225 3226 3227 3228 3229 3229 3229 3230 3231 3231 3230 3230 3231 3231 3231 3231 3230 3230 3229 3229 3229 3229 3229 3230 3231 3231 3230 3230 3229 3228 3227 3227 3227 3227 3227 3226 3226 3226 3224 3222 3221 3221 3220 3218 3217 3217
3195 3195 3196 3196 3196 3197 3197 3198 3198 3199 3199 3200 3201 3201 3202 3202 3203 3203 3204 3205 3206 3206 3207 3208 3209 3210 3211 3212 3213 3214 3215 3216 3216 3217 3218 3219 3219 3219 3220 3220 3221 3222 3223 3224 3225 3226 3226 3227 3227 3227 3227 3227 3228 3228 3228 3227 3226 3226 3226 3225 3224 3224 3226 3226 3226 3226 3226 3225 3224 3224 3223 3223 3223 3222 3222 3222 3222 3221 3220 3219 3218 3216 3215 3215 3214
3194 3194 3195 3195 3196 3196 3196 3196 3197 3197 3197 3198 3198 3198 3198 3199 3199 3200 3200 3201 3202 3202 3203 3204 3205 3206 3207 3208 3209 3210 3210 3211 3212 3213 3214 3215 3215 3215 3216 3216 3217 3218 3219 3219 3220 3221 3222 3222 3223 3223 3223 3223 3224 3224 3224 3224 3223 3222 3221 3220 3220 3221 3222 3221 3220 3220 3220 3220 3220 3220 3220 3220 3219 3219 3218 3218 3218 3218 3217 3216 3215 3214 3212 3211 3211
3193 3193 3193 3194 3194 3195 3195 3195 3195 3196 3196 3196 3196 3196 3196 3196 3196 3196 3197 3197 3198 3198 3199 3200 3201 3202 3203 3204 3205 3206 3206 3207 3208 3210 3210 3210 3211 3211 3211 3212 3213 3213 3213 3214 3215 3216 3217 3217 3218 3218 3218 3218 3219 3219 3219 3219 3219 3218 3217 3217 3217 3218 3217 3216 3215 3215 3215 3215 3215 3215 3215 3215 3215 3215 3215 3214 3214 3214 3213 3212 3211 3210 3209 3207 3207
3190 3191 3191 3192 3192 3193 3193 3193 3194 3194 3194 3194 3194 3194 3194 3195 3194 3194 3194 3194 3194 3195 3196 3196 3197 3198 3198 3200 3202 3202 3202 3202 3204 3205 3206 3206 3206 3207 3207 3208 3208 3208 3208 3209 3210 3211 3212 3213 3213 3213 3213 3213 3213 3213 3213 3214 3214 3214 3214 3214 3214 3214 3213 3211 3211 3211 3211 3211 3211 3210 3210 3211 3211 3211 3210 3209 3209 3209 3208 3207 3206 3206 3205 3204 3204
3187 3187 3188 3189 3189 3189 3190 3190 3191 3191 3191 3192 3192 3193 3193 3193 3193 3193 3192 3192 3192 3192 3192 3192 3193 3193 3194 3196 3198 3198 3198 3198 3199 3200 3201 3202 3202 3202 3202 3203 3203 3203 3203 3204 3205 3206 3207 3208 3208 3209 3209 3208 3208 3208 3209 3209 3209 3209 3210 3210 3210 3209 3208 3208 3208 3207 3207 3207 3206 3206 3206 3206 3206 3206 3205 3205 3204 3203 3202 3202 3202 3202 3201 3201 3200
3183 3183 3184 3185 3185 3186 3186 3186 3187 3187 3187 3188 3189 3189 3189 3190 3190 3190 3189 3189 3189 3188 3188 3188 3188 3189 3189 3191 3193 3194 3193 3193 3194 3195 3196 3197 3197 3197 3198 3199 3199 3199 3199 3199 3200 3201 3202 3203 3203 3204 3204 3204 3204 3204 3204 3205 3205 3205 3205 3205 3205 3204 3204 3204 3204 3203 3203 3202 3201 3201 3201 3201 3201 3201 3200 3200 3199 3198 3198 3197 3197 3197 3197 3197 3197
3178 3179 3180 3181 3182 3182 3182 3182 3183 3183 3183 3184 3185 3185 3186 3186 3186 3185 3185 3185 3185 3185 3184 3184 3184 3184 3185 3186 3188 3190 3189 3189 3190 3190 3191 3191 3192 3193 3193 3194 3195 3195 3195 3195 3196 3196 3197 3197 3197 3198 3198 3199 3199 3199 3199 3200 3200 3200 3201 3201 3201 3200 3200 3200 3199 3199 3198 3198 3197 3196 3196 3196 3196 3196 3195 3194 3194 3193 3193 3192 3192 3192 3192 3192 3193
3173 3174 3175 3176 3177 3178 3178 3179 3179 3178 3178 3179 3180 3181 3181 3181 3182 3182 3182 3182 3182 3182 3182 3181 3181 3181 3181 3182 3183 3185 3186 3185 3185 3185 3186 3186 3186 3187 3188 3188 3189 3190 3190 3190 3191 3192 3192 3192 3192 3192 3193 3194 3194 3194 3195 3195 3195 3195 3196 3196 3196 3196 3195 3195 3194 3194 3193 3193 3192 3191 3191 3191 3191 3191 3190 3190 3189 3189 3189 3188 3188 3188 3188 3189 3189
3169 3170 3170 3171 3172 3173 3173 3175 3175 3175 3175 3175 3175 3176 3176 3177 3177 3178 3178 3178 3178 3179 3179 3179 3178 3178 3178 3178 3179 3180 3181 3181 3180 3180 3180 3181 3182 3182 3182 3183 3184 3185 3185 3185 3186 3186 3187 3187 3188 3188 3189 3190 3190 3190 3190 3190 3190 3190 3191 3191 3191 3191 3190 3190 3189 3188 3188 3187 3186 3186 3186 3185 3185 3185 3185 3185 3184 3185 3185 3185 3184 3185 3184 3184 3184
3165 3166 3166 3167 3167 3168 3168 3169 3171 3171 3171 3171 3171 3171 3172 3172 3173 3173 3173 3173 3174 3174 3175 3176 3176 3175 3175 3175 3175 3176 3177 3177 3176 3175 3175 3176 3177 3177 3178 3178 3178 3179 3179 3180 3180 3181 3181 3182 3182 3183 3183 3184 3185 3185 3185 3185 3185 3185 3185 3185 3185 3185 3184 3184 3183 3183 3182 3182 3181 3180 3180 3179 3179 3180 3180 3180 3180 3181 3181 3180 3180 3180 3180 3179 3179
3162 3162 3163 3163 3163 3163 3164 3165 3165 3166 3167 3167 3167 3168 3167 3167 3167 3168 3168 3168 3169 3170 3171 3172 3172 3172 3171 3171 3171 3172 3173 3173 3171 3170 3170 3171 3172 3172 3173 3173 3173 3173 3173 3173 3174 3175 3176 3176 3176 3177 3177 3178 3178 3179 3179 3180 3179 3179 3179 3179 3178 3179 3179 3178 3178 3178 3177 3176 3175 3175 3175 3174 3174 3174 3174 3175 3176 3176 3176 3175 3175 3175 3175 3174 3174
3158 3158 3159 3159 3159 3159 3160 3160 3161 3162 3162 3163 3163 3164 3163 3163 3163 3163 3164 3165 3165 3165 3166 3167 3167 3167 3167 3168 3167 3167 3168 3168 3168 3166 3166 3166 3167 3167 3167 3168 3168 3168 3168 3168 3168 3169 3170 3170 3170 3171 3171 3172 3172 3173 3173 3174 3173 3173 3173 3173 3173 3173 3173 3173 3173 3173 3172 3171 3170 3170 3170 3170 3170 3170 3169 3170 3171 3171 3171 3171 3171 3171 3171 3171 3171
3153 3154 3155 3155 3155 3156 3156 3156 3157 3157 3158 3159 3159 3159 3159 3159 3159 3159 3160 3161 3161 3161 3160 3161 3161 3161 3162 3163 3163 3163 3163 3164 3164 3163 3162 3162 3162 3162 3162 3162 3162 3162 3163 3163 3163 3164 3164 3164 3165 3165 3165 3165 3166 3167 3167 3168 3168 3168 3168 3168 3168 3167 3168 3168 3168 3168 3167 3166 3166 3166 3165 3165 3165 3165 3165 3165 3165 3165 3166 3167 3167 3167 3167 3167 3167
3149 3149 3150 3151 3151 3152 3152 3152 3153 3153 3154 3155 3155 3155 3155 3155 3155 3156 3156 3156 3156 3156 3156 3156 3156 3157 3157 3158 3158 3158 3158 3158 3158 3158 3158 3157 3157 3157 3157 3157 3157 3157 3157 3158 3158 3158 3158 3158 3159 3159 3159 3160 3160 3161 3161 3162 3162 3162 3162 3162 3163 3163 3163 3163 3163 3162 3161 3161 3161 3161 3161 3161 3161 3161 3160 3160 3160 3160 3161 3162 3162 3162 3163 3163 3162
3145 3145 3146 3146 3147 3147 3148 3148 3149 3149 3150 3151 3151 3151 3151 3151 3152 3152 3152 3151 3151 3151 3151 3152 3152 3152 3152 3153 3153 3153 3152 3153 3153 3153 3153 3153 3152 3152 3152 3153 3153 3153 3153 3153 3152 3153 3153 3153 3153 3154 3154 3154 3155 3155 3156 3156 3157 3157 3157 3157 3157 3158 3158 3158 3157 3157 3156 3157 3157 3157 3157 3157 3157 3156 3156 3156 3156 3156 3156 3157 3157 3157 3157 3157 3157
3141 3141 3141 3141 3142 3143 3144 3144 3145 3145 3146 3147 3147 3147 3147 3148 3148 3148 3148 3148 3147 3147 3147 3147 3147 3147 3147 3147 3147 3147 3147 3147 3147 3147 3147 3147 3147 3147 3147 3148 3148 3148 3148 3148 3147 3147 3147 3147 3147 3148 3148 3148 3149 3149 3150 3150 3151 3151 3151 3152 3152 3152 3153 3153 3152 3152 3151 3152 3152 3152 3153 3153 3153 3153 3153 3152 3152 3151 3151 3151 3151 3151 3151 3151 3151
3137 3137 3137 3137 3138 3139 3139 3140 3141 3142 3142 3142 3143 3143 3143 3144 3144 3143 3143 3143 3143 3143 3143 3143 3142 3142 3141 3141 3141 3142 3142 3142 3142 3142 3141 3142 3142 3142 3142 3143 3143 3143 3143 3143 3142 3142 3142 3142 3142 3142 3142 3142 3143 3143 3144 3144 3145 3145 3146 3146 3146 3147 3147 3147 3147 3147 3146 3146 3146 3147 3148 3148 3148 3148 3148 3148 3148 3148 3147 3147 3146 3146 3145 3145 3145
3133 3133 3133 3133 3134 3134 3135 3136 3137 3137 3138 3138 3138 3138 3139 3139 3139 3139 3139 3139 3138 3138 3138 3138 3138 3137 3137 3136 3136 3136 3136 3137 3137 3137 3136 3136 3136 3136 3137 3137 3137 3137 3137 3137 3137 3137 3137 3136 3136 3136 3136 3136 3136 3137 3137 3138 3139 3139 3139 3140 3140 3140 3141 3141 3142 3141 3141 3140 3140 3141 3142 3142 3143 3144 3143 3143 3143 3143 3143 3142 3141 3140 3140 3140 3140
3130 3130 3130 3130 3130 3130 3131 3131 3132 3133 3133 3133 3133 3133 3134 3134 3134 3134 3134 3134 3134 3134 3133 3133 3133 3133 3132 3131 3131 3131 3131 3131 3131 3131 3130 3130 3130 3130 3130 3130 3131 3131 3131 3130 3130 3130 3131 3131 3131 3130 3130 3130 3130 3130 3131 3131 3132 3133 3133 3133 3134 3134 3135 3135 3135 3135 3135 3134 3134 3134 3134 3135 3137 3138 3138 3138 3138 3138 3138 3137 3136 3135 3135 3135 3135
3125 3125 3126 3126 3126 3126 3127 3127 3127 3128 3128 3128 3128 3128 3128 3129 3129 3129 3129 3129 3129 3129 3129 3128 3128 3128 3127 3126 3125 3125 3125 3125 3125 3125 3125 3124 3124 3123 3123 3123 3124 3124 3124 3124 3124 3124 3125 3125 3125 3125 3125 3124 3124 3124 3125 3125 3126 3126 3127 3127 3127 3128 3128 3129 3129 3129 3129 3129 3128 3128 3128 3129 3131 3132 3132 3132 3132 3132 3132 3132 3131 3130 3129 3129 3129
3120 3120 3121 3121 3121 3122 3122 3122 3122 3122 3122 3123 3123 3123 3123 3123 3123 3123 3123 3123 3123 3123 3123 3123 3123 3122 3121 3121 3120 3119 3119 3119 3119 3119 3119 3118 3118 3117 3117 3117 3117 3117 3117 3117 3117 3117 3118 3118 3119 3119 3119 3119 3119 3119 3119 3119 3120 3120 3121 3121 3121 3122 3122 3122 3123 3123 3123 3123 3122 3121 3121 3123 3125 3126 3125 3125 3126 3126 3126 3126 3125 3124 3123 3123 3123
3115 3115 3115 3115 3115 3116 3116 3116 3116 3116 3117 3117 3118 3118 3118 3118 3118 3118 3118 3118 3118 3117 3117 3117 3117 3116 3115 3115 3114 3114 3113 3113 3112 3112 3112 3112 3111 3111 3110 3110 3110 3110 3110 3111 3111 3110 3111 3112 3112 3113 3113 3113 3113 3113 3113 3113 3114 3115 3115 3115 3115 3115 3116 3116 3116 3117 3116 3116 3116 3115 3114 3116 3118 3119 3118 3118 3119 3120 3119 3119 3119 3118 3118 3118 3118
3111 3111 3111 3111 3110 3110 3110 3110 3110 3111 3111 3111 3112 3112 3112 3112 3112 3112 3112 3112 3112 3112 3111 3111 3110 3110 3109 3108 3108 3107 3107 3106 3106 3106 3105 3105 3104 3104 3104 3103 3103 3103 3103 3103 3103 3103 3104 3105 3105 3106 3106 3107 3107 3107 3107 3107 3107 3108 3109 3109 3109 3109 3109 3109 3110 3110 3110 3110 3110 3109 3109 3109 3110 3111 3111 3112 3113 3113 3112 3112 3112 3112 3112 3112 3112
3107 3107 3107 3107 3106 3105 3105 3105 3105 3105 3105 3105 3106 3106 3106 3106 3106 3106 3106 3106 3106 3106 3105 3105 3104 3104 3103 3102 3101 3100 3100 3100 3099 3099 3098 3098 3098 3097 3097 3096 3096 3095 3095 3095 3095 3096 3096 3097 3097 3098 3099 3100 3100 3101 3101 3101 3101 3101 3102 3103 3103 3103 3103 3103 3103 3103 3103 3103 3103 3103 3103 3103 3103 3103 3104 3105 3105 3105 3105 3105 3105 3105 3105 3105 3106
3102 3102 3102 3102 3102 3101 3101 3100 3100 3100 3100 3100 3100 3100 3100 3100 3100 3100 3099 3099 3099 3099 3099 3098 3098 3097 3097 3096 3095 3094 3093 3093 3092 3091 3091 3091 3090 3090 3089 3088 3088 3087 3088 3088 3088 3088 3088 3089 3089 3090 3091 3092 3093 3094 3094 3095 3095 3095 3096 3096 3096 3096 3096 3096 3096 3096 3096 3096 3096 3096 3096 3097 3096 3096 3097 3097 3097 3097 3097 3097 3098 3098 3098 3098 3099
3097 3097 3097 3097 3096 3096 3096 3096 3096 3095 3095 3095 3095 3094 3094 3094 3093 3093 3093 3092 3092 3092 3091 3091 3091 3090 3090 3089 3089 3087 3086 3086 3085 3084 3084 3084 3083 3083 3082 3081 3080 3080 3080 3080 3080 3080 3080 3080 3081 3082 3083 3084 3085 3086 3087 3087 3088 3089 3089 3090 3090 3090 3090 3090 3089 3089 3089 3089 3090 3090 3090 3090 3090 3090 3090 3091 3091 3090 3090 3090 3091 3091 3091 3091 3091
3092 3092 3092 3091 3091 3091 3091 3091 3090 3090 3090 3090 3089 3089 3088 3088 3087 3087 3086 3085 3085 3084 3084 3083 3083 3082 3082 3082 3081 3081 3080 3079 3078 3077 3077 3077 3076 3075 3074 3074 3073 3073 3072 3072 3073 3073 3072 3072 3073 3073 3075 3076 3077 3078 3079 3079 3080 3081 3082 3082 3082 3083 3083 3083 3083 3083 3083 3083 3083 3083 3083 3083 3084 3084 3084 3084 3084 3083 3083 3083 3084 3084 3084 3084 3084
3087 3087 3086 3086 3086 3086 3085 3085 3085 3085 3084 3084 3083 3083 3082 3082 3082 3081 3080 3079 3078 3077 3077 3076 3076 3075 3074 3074 3073 3073 3073 3072 3071 3070 3070 3070 3069 3068 3067 3066 3066 3066 3065 3065 3065 3065 3065 3065 3065 3065 3066 3067 3068 3069 3070 3071 3072 3072 3073 3074 3075 3075 3076 3076 3076 3076 3076 3076 3076 3077 3077 3077 3077 3077 3077 3077 3077 3076 3076 3076 3077 3077 3077 3077 3077
3082 3082 3081 3081 3081 3080 3080 3080 3079 3079 3078 3078 3077 3077 3076 3076 3075 3075 3074 3073 3072 3071 3070 3070 3069 3068 3068 3067 3066 3065 3065 3064 3063 3063 3063 3062 3062 3061 3060 3059 3059 3058 3058 3058 3057 3057 3058 3058 3057 3057 3058 3059 3060 3061 3061 3062 3063 3063 3064 3065 3066 3067 3069 3069 3069 3070 3070 3070 3069 3070 3070 3070 3070 3070 3070 3070 3070 3069 3069 3069 3070 3070 3069 3069 3069
3077 3077 3077 3076 3076 3075 3075 3074 3074 3073 3072 3072 3071 3070 3070 3069 3069 3068 3067 3067 3066 3065 3065 3064 3063 3062 3061 3060 3059 3058 3057 3057 3056 3055 3054 3054 3054 3053 3053 3052 3051 3051 3050 3050 3050 3050 3050 3050 3050 3050 3050 3051 3051 3052 3052 3053 3054 3055 3056 3057 3058 3059 3061 3062 3063 3063 3063 3063 3063 3063 3063 3063 3063 3064 3064 3063 3063 3063 3063 3063 3063 3063 3062 3062 3062
3072 3072 3072 3071 3071 3070 3070 3069 3069 3068 3067 3066 3065 3065 3064 3063 3062 3061 3061 3060 3060 3059 3058 3057 3056 3055 3054 3053 3052 3051 3050 3049 3048 3047 3047 3046 3046 3046 3045 3045 3044 3044 3043 3043 3043 3043 3043 3043 3043 3043 3043 3043 3043 3043 3043 3044 3045 3046 3048 3049 3050 3051 3052 3054 3055 3056 3056 3056 3056 3056 3056 3056 3056 3057 3057 3056 3056 3056 3056 3056 3056 3056 3055 3055 3055
3068 3068 3067 3067 3066 3066 3065 3065 3064 3063 3062 3061 3060 3059 3058 3057 3056 3055 3054 3054 3053 3052 3051 3050 3049 3048 3047 3046 3044 3043 3043 3042 3041 3040 3039 3038 3038 3038 3037 3037 3037 3036 3036 3035 3035 3035 3035 3035 3036 3036 3036 3035 3035 3035 3035 3036 3036 3038 3039 3040 3041 3042 3044 3045 3047 3049 3049 3049 3050 3050 3050 3050 3050 3050 3050 3050 3049 3049 3049 3049 3049 3048 3048 3047 3048
3063 3063 3063 3062 3062 3061 3061 3060 3059 3058 3057 3056 3055 3054 3053 3051 3050 3049 3048 3047 3046 3045 3044 3043 3042 3041 3040 3039 3037 3036 3035 3034 3033 3032 3031 3031 3030 3030 3030 3029 3029 3029 3028 3028 3028 3027 3027 3028 3029 3029 3028 3028 3027 3027 3028 3028 3029 3029 3030 3032 3033 3034 3035 3037 3038 3040 3041 3042 3043 3043 3043 3043 3043 3043 3043 3043 3042 3042 3042 3042 3042 3041 3041 3041 3040